Regional Weather Roundup
Issued by NWS

Home | Current Version | Previous Version | Graphics & Text | Print | Product List | Glossary On
Versions: 1 2 3 4 5 6 7 8 9 10 11 12 13 14 15 16 17 18 19 20 21 22 23 24 25 26 27 28 29 30 31 32 33 34 35 36 37 38 39 40 41 42 43 44 45 46 47 48 49 50
000
ASUS43 KMPX 021501
RWRMN
WEATHER ROUNDUP FOR MINNESOTA
NATIONAL WEATHER SERVICE TWIN CITIES/CHANHASSEN MN
1000 AM CDT TUE SEP 02 2014


NOTE: "FAIR" INDICATES FEW OR NO CLOUDS BELOW 12,000 FEET WITH NO
SIGNIFICANT WEATHER AND/OR OBSTRUCTIONS TO VISIBILITY. N/A MEANS
CURRENT SKY AND/OR WEATHER CONDITIONS ARE NOT AVAILABLE.

MNZ060>063-068>070-021600-
   Twin Cities Metro

CITY           SKY/WX    TMP DP  RH WIND       PRES   REMARKS
TWIN CITIES    SUNNY     68  57  68 SW6       29.89R
ST PAUL        SUNNY     68  58  70 W6        29.89S
CRYSTAL        SUNNY     68  56  65 VRB3      29.88R
BLAINE         SUNNY     70  61  73 W3        29.89R
LAKEVILLE      SUNNY     66  57  72 W6        29.90R
EDEN PRAIRIE   SUNNY     68  58  70 W5        29.89R
SOUTH ST PAUL  SUNNY     68  58  68 W6        29.89S
LAKE ELMO      FAIR      68  59  73 CALM      29.90R
$$
MNZ001>005-007-008-013>017-022>024-027-028-021600-
   Northwest Minnesota

CITY           SKY/WX    TMP DP  RH WIND       PRES   REMARKS
BEMIDJI        MOSUNNY   64  53  67 SW8       29.81S
HALLOCK          N/A     57  54  88 CALM      29.76S
ROSEAU         MOSUNNY   61  54  77 SW3       29.77S
WARROAD        MOSUNNY   57  54  88 W6        29.77R
THIEF RVR FALL SUNNY     59  52  77 SW7       29.80S
CROOKSTON      MOSUNNY   59  54  82 S7        29.80S
FOSSTON        SUNNY     57  54  88 SW7       29.82F
DETROIT LAKES  SUNNY     63  54  72 SW6       29.86S
MOORHEAD       MOSUNNY   63  59  88 SW7       29.84S
PARK RAPIDS    SUNNY     65  55  70 W10       29.85S
MAHNOMEN       FAIR      60  55  83 SW7       29.83S
$$
MNZ006-009>011-018-025>026-021600-
   North Central Minnesota

CITY           SKY/WX    TMP DP  RH WIND       PRES   REMARKS
BAUDETTE       SUNNY     60  53  77 SW5       29.76S
FLAG ISLAND    MOSUNNY   57  52  82 SW3       29.74R
INTL FALLS     SUNNY     61  53  75 W7        29.77S
WASKISH        MOSUNNY   63  55  77 SW7       29.79S
BIG FORK       SUNNY     66  54  63 SW12      29.80S
LONGVILLE      MOSUNNY   63  55  77 SW5       29.84R
GRAND RAPIDS   SUNNY     64  52  63 SW7       29.83S
CRANE LAKE     MOSUNNY   59  54  82 S5        29.80S
ORR            MOSUNNY   63  52  67 CALM      29.77S
COOK           SUNNY     64  54  68 SW7       29.80S
WALKER         FAIR      64  52  64 W6        29.83S
$$
MNZ012-019>021-037-021600-
   Northeast Minnesota

CITY           SKY/WX    TMP DP  RH WIND       PRES   REMARKS
DULUTH         MOSUNNY   66  52  60 NW8       29.85R
ELY            PTSUNNY   61  52  72 SW6       29.81S
HIBBING        SUNNY     64  55  72 SW3       29.82F
EVELETH        SUNNY     61  54  77 SW7       29.83S
DULUTH HARBOR  SUNNY     64  57  77 SW8       29.83S
TWO HARBORS    SUNNY     64  54  68 W6        29.81R
SILVER BAY     SUNNY     66  57  72 CALM      29.80S
GRAND MARAIS     N/A     63  56  78 W6        29.77R
G MARAIS ARPRT SUNNY     64  50  59 SW7       29.81R
$$
MNZ029>031-032-039>041-046>048-054>057-064-021600-
   West Central Minnesota

CITY           SKY/WX    TMP DP  RH WIND       PRES   REMARKS
FERGUS FALLS   SUNNY     63  52  67 W3        29.86F
WHEATON        SUNNY     64  55  72 SW6       29.89S
MORRIS         SUNNY     68  57  68 W6        29.88R
ALEXANDRIA     SUNNY     67  55  65 W9        29.90R
ELBOW LAKE     FAIR      63  56  77 SW5       29.87S
WADENA         SUNNY     63  55  77 SW8       29.86S
GLENWOOD       SUNNY     68  55  64 SW6       29.90R
APPLETON       SUNNY     66  55  68 SW3       29.89R
BENSON         SUNNY     66  57  72 CALM      29.89S
ORTONVILLE     SUNNY     66  55  68 SW3       29.88S
MADISON        SUNNY     70  61  73 SW3       29.89S
WILLMAR        FAIR      64  57  77 W3        29.91S
$$
MNZ033>034-036-042>043-049>051-058-059-021600-
   Central Minnesota

CITY           SKY/WX    TMP DP  RH WIND       PRES   REMARKS
ST CLOUD       SUNNY     70  56  61 CALM      29.88S
SAUK CENTRE    FAIR      66  57  72 SW6       29.89S
PAYNESVILLE    HVY RAIN  65  56  73 S6        29.90S
AITKIN         MOSUNNY   68  57  68 CALM      29.84F
PINE RIVER     MOSUNNY   63  55  77 SW5       29.89R
BRAINERD       MOSUNNY   63  56  78 SW8       29.87S
STAPLES        MOSUNNY   64  54  68 W7        29.86S
LONG PRAIRIE   FAIR      64  55  72 SW6       29.89R
LITTLE FALLS   SUNNY     64  54  68 CALM      29.87F
LITCHFIELD     SUNNY     68  61  77 CALM      29.90S
BUFFALO        SUNNY     66  58  74 CALM      29.90S
MAPLE LAKE     SUNNY     68  60  75 CALM      29.90S
$$
MNZ037-044-045-052-053-021600-
   East Central Minnesota

CITY           SKY/WX    TMP DP  RH WIND       PRES   REMARKS
PRINCETON      SUNNY     68  57  68 W3        29.88S
MORA           SUNNY     64  54  68 CALM      29.88F
CAMBRIDGE      SUNNY     68  54  60 W3        29.87S
RUSH CITY      SUNNY     66  56  70 CALM      29.88S
MOOSE LAKE     SUNNY     64  54  68 SW6       29.84S
HINCKLEY       FAIR      64  59  82 W5        29.87S
CLOQUET        SUNNY     66  52  59 W8        29.85R
MCGREGOR       SUNNY     64  55  72 W7        29.86S
$$
MNZ071>073-080-081-089-090-097-098-021600-
   Southwest Minnesota

CITY           SKY/WX    TMP DP  RH WIND       PRES   REMARKS
MONTEVIDEO     SUNNY     72  64  78 CALM      29.91R
GRANITE FALLS  SUNNY     66  59  78 W3        29.92S
CANBY          SUNNY     68  56  65 W5        29.92R
MARSHALL       SUNNY     70  55  60 CALM      29.91R
REDWOOD FALLS  SUNNY     67  57  70 VRB3      29.91S
OLIVIA         SUNNY     68  59  73 W3        29.90S
PIPESTONE      SUNNY     63  57  82 W3        29.95R
WINDOM         SUNNY     66  57  72 SW6       29.94S
WORTHINGTON    SUNNY     64  57  77 W6        29.97R
JACKSON        SUNNY     66  55  68 W7        29.95S
TRACY          SUNNY     68  58  71 CALM      29.94R
SLAYTON        SUNNY     65  56  72 CALM      29.95R
$$
MNZ065>067-074>077-082>085-091>093-021600-
   South Central Minnesota

CITY           SKY/WX    TMP DP  RH WIND       PRES   REMARKS
MANKATO        SUNNY     66  55  68 W7        29.92R
NEW ULM        SUNNY     66  61  82 CALM      29.92R
ST JAMES       SUNNY     70  57  64 W6        29.94R
FAIRMONT       SUNNY     66  54  63 SW7       29.94R
GLENCOE        SUNNY     67  56  68 W3        29.90S
FARIBAULT      SUNNY     72  57  60 SW7       29.92R
OWATONNA       SUNNY     66  57  72 SW7       29.93R
WASECA         SUNNY     64  52  63 SW9       29.95R
ALBERT LEA     SUNNY     68  57  68 SW6       29.93R
$$
MNZ078>079-086>088-094>096-021600-
   Southeast Minnesota

CITY           SKY/WX    TMP DP  RH WIND       PRES   REMARKS
ROCHESTER      SUNNY     67  58  72 W8        29.93R
RED WING       SUNNY     70  59  68 W8        29.88S
STANTON        SUNNY     69  58  68 W7        29.89R
DODGE CENTER   SUNNY     66  57  72 W10       29.92R
WINONA         SUNNY     70  59  68 W5        29.90S
AUSTIN         SUNNY     66  59  77 SW6       29.93R
PRESTON        MOSUNNY   66  61  85 CALM      29.93R
$$
ABBREVIATIONS USED IN REMARKS
   TC - TEMPERATURES IN CELSIUS
  WCI - WIND CHILL INDEX
   HX - HEAT INDEX
  VSB - VISIBILITY
$$


USA.gov is the U.S. government's official web portal to all federal, state and local government web resources and services.